| time (UTC) | temp F | wind direction | speed MPH | gust MPH | rain 1hr in | rain 24hr in | rain mn in | humidity % | barometer mb |
| 20260510093016 | 48 | 317 | 0.0 | 0.0 | 0.00 | 0.00 | 0.00 | 99 | 1009.5 |
| 20260510092513 | 48 | 316 | 0.0 | 0.0 | 0.00 | 0.00 | 0.00 | 99 | 1009.5 |
| 20260510092012 | 49 | 311 | 0.0 | 0.0 | 0.00 | 0.00 | 0.00 | 99 | 1009.7 |
| 20260510091509 | 48 | 333 | 1.0 | 1.0 | 0.00 | 0.00 | 0.00 | 99 | 1009.4 |
| 20260510091005 | 48 | 320 | 1.0 | 1.0 | 0.00 | 0.00 | 0.00 | 99 | 1009.6 |
| 20260510090503 | 48 | 302 | 0.0 | 0.0 | 0.00 | 0.00 | 0.00 | 99 | 1009.7 |
| 20260510085958 | 48 | 316 | 0.0 | 0.0 | 0.00 | 0.00 | 0.00 | 99 | 1009.6 |
| 20260510085453 | 48 | 316 | 0.0 | 0.0 | 0.00 | 0.00 | 0.00 | 99 | 1009.6 |
| 20260510084949 | 48 | 314 | 0.0 | 0.0 | 0.00 | 0.00 | 0.00 | 99 | 1009.6 |
| 20260510084446 | 49 | 326 | 1.0 | 2.0 | 0.00 | 0.00 | 0.00 | 99 | 1009.3 |
| 20260510083943 | 48 | 331 | 0.0 | 1.0 | 0.00 | 0.00 | 0.00 | 99 | 1009.1 |
| 20260510083439 | 48 | 313 | 0.0 | 0.0 | 0.00 | 0.00 | 0.00 | 99 | 1008.9 |
| 20260510082934 | 49 | 308 | 0.0 | 0.0 | 0.00 | 0.00 | 0.00 | 99 | 1009.2 |
| 20260510082433 | 49 | 311 | 0.0 | 0.0 | 0.00 | 0.00 | 0.00 | 99 | 1009.3 |
| 20260510081932 | 49 | 311 | 0.0 | 0.0 | 0.00 | 0.00 | 0.00 | 99 | 1009.5 |
| 20260510081428 | 49 | 305 | 0.0 | 0.0 | 0.00 | 0.00 | 0.00 | 99 | 1009.7 |
| 20260510080924 | 49 | 312 | 0.0 | 0.0 | 0.00 | 0.00 | 0.00 | 99 | 1009.5 |
| 20260510080423 | 49 | 314 | 0.0 | 0.0 | 0.00 | 0.00 | 0.00 | 99 | 1009.4 |
| 20260510075920 | 49 | 326 | 1.0 | 1.0 | 0.00 | 0.00 | 0.00 | 99 | 1009.7 |
| 20260510075418 | 49 | 322 | 1.0 | 1.0 | 0.00 | 0.00 | 0.00 | 99 | 1009.5 |
| 20260510074914 | 49 | 321 | 0.0 | 1.0 | 0.00 | 0.00 | 0.00 | 99 | 1009.6 |
| 20260510074412 | 49 | 314 | 0.0 | 0.0 | 0.00 | 0.00 | 0.00 | 99 | 1009.4 |
| 20260510073908 | 48 | 318 | 0.0 | 1.0 | 0.00 | 0.00 | 0.00 | 99 | 1009.2 |
| 20260510073403 | 48 | 306 | 1.0 | 1.0 | 0.00 | 0.00 | 0.00 | 99 | 1009.3 |
| 20260510072900 | 48 | 314 | 0.0 | 0.0 | 0.00 | 0.00 | 0.00 | 99 | 1009.2 |
| 20260510072357 | 48 | 309 | 0.0 | 0.0 | 0.00 | 0.00 | 0.00 | 99 | 1009.4 |
| 20260510071853 | 48 | 311 | 0.0 | 0.0 | 0.00 | 0.00 | 0.00 | 99 | 1009.0 |
| 20260510071349 | 48 | 300 | 1.0 | 1.0 | 0.00 | 0.00 | 0.00 | 99 | 1009.4 |
| 20260510070848 | 48 | 311 | 0.0 | 0.0 | 0.00 | 0.00 | 0.00 | 99 | 1009.5 |
| 20260510070344 | 48 | 313 | 0.0 | 0.0 | 0.00 | 0.00 | 0.00 | 99 | 1009.4 |
| 20260510065839 | 48 | 313 | 0.0 | 0.0 | 0.00 | 0.00 | 0.00 | 99 | 1009.6 |
| 20260510065336 | 49 | 311 | 0.0 | 0.0 | 0.00 | 0.00 | 0.00 | 99 | 1009.3 |
| 20260510064833 | 48 | 310 | 0.0 | 0.0 | 0.00 | 0.00 | 0.00 | 99 | 1009.7 |
| 20260510064331 | 49 | 314 | 0.0 | 0.0 | 0.00 | 0.00 | 0.00 | 99 | 1009.7 |
| 20260510063826 | 49 | 313 | 0.0 | 0.0 | 0.00 | 0.00 | 0.00 | 99 | 1009.9 |
| 20260510063323 | 49 | 335 | 0.0 | 0.0 | 0.00 | 0.00 | 0.00 | 99 | 1009.8 |
| 20260510062820 | 49 | 309 | 0.0 | 0.0 | 0.00 | 0.00 | 0.00 | 99 | 1009.9 |
| 20260510062315 | 49 | 313 | 0.0 | 0.0 | 0.00 | 0.00 | 0.00 | 99 | 1010.0 |
| 20260510061810 | 49 | 326 | 1.0 | 1.0 | 0.00 | 0.00 | 0.00 | 99 | 1010.2 |
| 20260510061308 | 49 | 320 | 0.0 | 0.0 | 0.00 | 0.00 | 0.00 | 99 | 1010.2 |
| 20260510060804 | 49 | 313 | 0.0 | 0.0 | 0.00 | 0.00 | 0.00 | 99 | 1009.9 |
| 20260510060256 | 49 | 314 | 0.0 | 1.0 | 0.00 | 0.00 | 0.00 | 99 | 1010.1 |
| 20260510055752 | 49 | 316 | 0.0 | 0.0 | 0.00 | 0.00 | 0.00 | 99 | 1010.1 |
| 20260510055251 | 49 | 313 | 0.0 | 0.0 | 0.00 | 0.00 | 0.00 | 99 | 1010.3 |
| 20260510054750 | 48 | 322 | 1.0 | 1.0 | 0.00 | 0.00 | 0.00 | 99 | 1010.1 |
| 20260510054247 | 48 | 309 | 0.0 | 0.0 | 0.00 | 0.00 | 0.00 | 99 | 1010.3 |
| 20260510053746 | 48 | 309 | 1.0 | 1.0 | 0.00 | 0.00 | 0.00 | 99 | 1010.4 |
| 20260510053242 | 48 | 311 | 0.0 | 0.0 | 0.00 | 0.00 | 0.00 | 99 | 1010.4 |
| 20260510052738 | 49 | 314 | 0.0 | 0.0 | 0.00 | 0.00 | 0.00 | 99 | 1010.5 |
| 20260510052234 | 49 | 316 | 0.0 | 0.0 | 0.00 | 0.00 | 0.00 | 99 | 1010.5 |
| 20260510051730 | 49 | 324 | 1.0 | 1.0 | 0.00 | 0.00 | 0.00 | 99 | 1010.5 |
| 20260510051227 | 49 | 321 | 1.0 | 2.0 | 0.00 | 0.00 | 0.00 | 99 | 1010.4 |
| 20260510050724 | 49 | 316 | 0.0 | 0.0 | 0.00 | 0.00 | 0.00 | 99 | 1010.3 |
| 20260510050222 | 48 | 335 | 1.0 | 1.0 | 0.00 | 0.00 | 0.00 | 99 | 1010.4 |
| 20260510045718 | 48 | 309 | 0.0 | 0.0 | 0.00 | 0.00 | 0.00 | 99 | 1010.3 |
| 20260510045215 | 48 | 306 | 0.0 | 0.0 | 0.00 | 0.00 | 0.00 | 99 | 1010.2 |
| 20260510044711 | 48 | 309 | 0.0 | 0.0 | 0.00 | 0.00 | 0.00 | 99 | 1010.4 |
| 20260510044210 | 48 | 307 | 0.0 | 0.0 | 0.00 | 0.00 | 0.00 | 99 | 1010.4 |
| 20260510043704 | 48 | 304 | 0.0 | 0.0 | 0.00 | 0.00 | 0.00 | 99 | 1010.7 |
| 20260510043201 | 48 | 314 | 0.0 | 0.0 | 0.00 | 0.00 | 0.00 | 99 | 1010.5 |
| 20260510042658 | 48 | 311 | 0.0 | 0.0 | 0.00 | 0.00 | 0.00 | 99 | 1010.7 |
| 20260510042154 | 48 | 314 | 0.0 | 0.0 | 0.00 | 0.00 | 0.00 | 99 | 1010.6 |
| 20260510041652 | 47 | 311 | 0.0 | 0.0 | 0.00 | 0.00 | 0.00 | 99 | 1010.8 |
| 20260510041149 | 47 | 311 | 0.0 | 0.0 | 0.00 | 0.00 | 0.00 | 99 | 1010.9 |
| 20260510040646 | 47 | 313 | 0.0 | 0.0 | 0.00 | 0.00 | 0.00 | 99 | 1010.7 |
| 20260510040143 | 47 | 311 | 0.0 | 0.0 | 0.00 | 0.00 | 0.00 | 99 | 1010.6 |
| 20260510035638 | 47 | 311 | 0.0 | 0.0 | 0.00 | 0.42 | 0.42 | 99 | 1010.8 |
| 20260510035133 | 47 | 311 | 0.0 | 0.0 | 0.00 | 0.42 | 0.42 | 99 | 1010.7 |
| 20260510034630 | 47 | 311 | 0.0 | 0.0 | 0.00 | 0.42 | 0.42 | 99 | 1010.9 |
| 20260510034127 | 47 | 309 | 0.0 | 0.0 | 0.00 | 0.42 | 0.42 | 99 | 1011.0 |
| 20260510033624 | 47 | 309 | 0.0 | 0.0 | 0.00 | 0.42 | 0.42 | 99 | 1011.2 |
| 20260510033121 | 47 | 306 | 0.0 | 1.0 | 0.00 | 0.42 | 0.42 | 99 | 1011.0 |
| 20260510032618 | 47 | 308 | 1.0 | 1.0 | 0.00 | 0.42 | 0.42 | 99 | 1011.1 |
| 20260510032113 | 47 | 310 | 0.0 | 0.0 | 0.00 | 0.42 | 0.42 | 99 | 1011.1 |
| 20260510031608 | 46 | 310 | 0.0 | 0.0 | 0.00 | 0.42 | 0.42 | 99 | 1011.2 |
| 20260510031105 | 46 | 309 | 0.0 | 0.0 | 0.00 | 0.42 | 0.42 | 99 | 1011.3 |
| 20260510030600 | 46 | 309 | 0.0 | 0.0 | 0.00 | 0.42 | 0.42 | 99 | 1011.2 |
| 20260510030057 | 46 | 311 | 0.0 | 0.0 | 0.00 | 0.42 | 0.42 | 99 | 1011.2 |
| 20260510025554 | 46 | 311 | 0.0 | 0.0 | 0.00 | 0.42 | 0.42 | 99 | 1011.1 |
| 20260510025052 | 46 | 309 | 0.0 | 0.0 | 0.00 | 0.42 | 0.42 | 99 | 1011.2 |
| 20260510024548 | 46 | 311 | 0.0 | 0.0 | 0.00 | 0.42 | 0.42 | 99 | 1011.2 |
| 20260510024045 | 46 | 309 | 0.0 | 0.0 | 0.00 | 0.42 | 0.42 | 99 | 1011.3 |
| 20260510023541 | 46 | 313 | 0.0 | 0.0 | 0.00 | 0.42 | 0.42 | 99 | 1011.3 |
| 20260510023039 | 46 | 315 | 0.0 | 0.0 | 0.00 | 0.42 | 0.42 | 99 | 1011.1 |
| 20260510022537 | 46 | 311 | 0.0 | 0.0 | 0.00 | 0.42 | 0.42 | 99 | 1011.3 |
| 20260510022031 | 46 | 314 | 0.0 | 0.0 | 0.00 | 0.42 | 0.42 | 99 | 1011.2 |
| 20260510021523 | 46 | 312 | 0.0 | 0.0 | 0.00 | 0.42 | 0.42 | 99 | 1011.2 |
| 20260510021021 | 46 | 311 | 0.0 | 0.0 | 0.00 | 0.42 | 0.42 | 99 | 1011.3 |
| 20260510020515 | 46 | 309 | 0.0 | 0.0 | 0.00 | 0.42 | 0.42 | 99 | 1011.2 |
| 20260510020011 | 46 | 311 | 0.0 | 0.0 | 0.00 | 0.42 | 0.42 | 99 | 1011.4 |
| 20260510015506 | 46 | 306 | 0.0 | 0.0 | 0.00 | 0.42 | 0.42 | 99 | 1011.4 |
| 20260510015003 | 46 | 296 | 0.0 | 0.0 | 0.00 | 0.42 | 0.42 | 99 | 1011.4 |
| 20260510014500 | 46 | 313 | 0.0 | 0.0 | 0.00 | 0.42 | 0.42 | 99 | 1011.4 |
| 20260510013956 | 46 | 311 | 0.0 | 0.0 | 0.00 | 0.42 | 0.42 | 99 | 1011.3 |
| 20260510013451 | 46 | 313 | 0.0 | 0.0 | 0.00 | 0.42 | 0.42 | 99 | 1011.3 |
| 20260510012947 | 46 | 312 | 0.0 | 0.0 | 0.00 | 0.42 | 0.42 | 99 | 1011.3 |
| 20260510012442 | 46 | 313 | 0.0 | 0.0 | 0.00 | 0.42 | 0.42 | 99 | 1011.3 |
| 20260510011937 | 46 | 313 | 0.0 | 0.0 | 0.00 | 0.42 | 0.42 | 99 | 1011.2 |
| 20260510011432 | 46 | 308 | 0.0 | 0.0 | 0.00 | 0.42 | 0.42 | 99 | 1011.0 |
| 20260510010928 | 46 | 314 | 0.0 | 0.0 | 0.00 | 0.42 | 0.42 | 99 | 1011.0 |
| 20260510010426 | 46 | 311 | 0.0 | 0.0 | 0.00 | 0.42 | 0.42 | 99 | 1011.0 |
| 20260510005922 | 46 | 311 | 0.0 | 0.0 | 0.00 | 0.42 | 0.42 | 99 | 1011.1 |
| 20260510005418 | 46 | 308 | 0.0 | 0.0 | 0.00 | 0.42 | 0.42 | 99 | 1010.9 |
| 20260510004916 | 46 | 309 | 0.0 | 0.0 | 0.00 | 0.42 | 0.42 | 99 | 1011.0 |
| 20260510004413 | 46 | 307 | 0.0 | 0.0 | 0.00 | 0.42 | 0.42 | 99 | 1011.1 |
| 20260510003911 | 46 | 313 | 0.0 | 0.0 | 0.00 | 0.42 | 0.42 | 99 | 1010.9 |
| 20260510003408 | 46 | 292 | 1.0 | 2.0 | 0.00 | 0.42 | 0.42 | 99 | 1010.8 |
| 20260510002907 | 46 | 293 | 1.0 | 1.0 | 0.00 | 0.42 | 0.42 | 99 | 1010.9 |
| 20260510002404 | 45 | 295 | 1.0 | 2.0 | 0.00 | 0.42 | 0.42 | 99 | 1011.0 |
| 20260510001901 | 45 | 296 | 1.0 | 1.0 | 0.00 | 0.42 | 0.42 | 99 | 1011.1 |
| 20260510001358 | 45 | 308 | 0.0 | 0.0 | 0.00 | 0.42 | 0.42 | 99 | 1011.3 |
| 20260510000855 | 45 | 308 | 0.0 | 0.0 | 0.00 | 0.42 | 0.42 | 99 | 1011.5 |
| 20260510000351 | 45 | 311 | 0.0 | 0.0 | 0.00 | 0.42 | 0.42 | 99 | 1011.4 |
| 20260509235848 | 45 | 315 | 0.0 | 0.0 | 0.00 | 0.42 | 0.42 | 99 | 1011.3 |
| 20260509235345 | 45 | 302 | 1.0 | 1.0 | 0.00 | 0.42 | 0.42 | 99 | 1011.4 |
| 20260509234841 | 45 | 311 | 0.0 | 0.0 | 0.00 | 0.42 | 0.42 | 99 | 1011.2 |
| 20260509234338 | 45 | 308 | 0.0 | 0.0 | 0.00 | 0.42 | 0.42 | 99 | 1011.3 |
| 20260509233836 | 45 | 307 | 0.0 | 0.0 | 0.00 | 0.42 | 0.42 | 99 | 1011.2 |
| 20260509233333 | 45 | 308 | 0.0 | 0.0 | 0.00 | 0.42 | 0.42 | 99 | 1011.2 |
| 20260509232829 | 45 | 308 | 0.0 | 0.0 | 0.00 | 0.42 | 0.42 | 99 | 1011.0 |
| 20260509232327 | 45 | 307 | 0.0 | 1.0 | 0.00 | 0.42 | 0.42 | 99 | 1011.2 |
| 20260509231823 | 45 | 300 | 3.0 | 3.0 | 0.00 | 0.42 | 0.42 | 99 | 1010.8 |
| 20260509231320 | 45 | 262 | 5.0 | 6.0 | 0.00 | 0.42 | 0.42 | 99 | 1011.0 |
| 20260509230818 | 45 | 280 | 4.0 | 5.0 | 0.05 | 0.42 | 0.42 | 99 | 1010.9 |
| 20260509230315 | 45 | 278 | 3.0 | 3.0 | 0.05 | 0.42 | 0.42 | 99 | 1011.4 |
| 20260509225809 | 45 | 290 | 2.0 | 2.0 | 0.07 | 0.41 | 0.41 | 99 | 1011.3 |
| 20260509225307 | 45 | 294 | 2.0 | 2.0 | 0.07 | 0.41 | 0.41 | 99 | 1011.1 |
| 20260509224802 | 45 | 270 | 4.0 | 5.0 | 0.05 | 0.40 | 0.40 | 99 | 1011.0 |
| 20260509224259 | 45 | 287 | 3.0 | 3.0 | 0.05 | 0.40 | 0.40 | 99 | 1011.0 |
| 20260509223755 | 45 | 290 | 3.0 | 3.0 | 0.00 | 0.39 | 0.39 | 99 | 1011.1 |
| 20260509223253 | 45 | 299 | 2.0 | 2.0 | 0.07 | 0.39 | 0.39 | 99 | 1011.2 |
| 20260509222749 | 45 | 305 | 2.0 | 2.0 | 0.07 | 0.39 | 0.39 | 99 | 1011.2 |
| 20260509222245 | 45 | 303 | 2.0 | 2.0 | 0.00 | 0.38 | 0.38 | 99 | 1011.1 |
| 20260509221740 | 45 | 276 | 1.0 | 2.0 | 0.05 | 0.38 | 0.38 | 99 | 1011.3 |
| 20260509221237 | 45 | 295 | 2.0 | 3.0 | 0.12 | 0.38 | 0.38 | 99 | 1011.5 |
| 20260509220733 | 45 | 311 | 1.0 | 2.0 | 0.07 | 0.37 | 0.37 | 99 | 1011.8 |
| 20260509220230 | 45 | 298 | 2.0 | 2.0 | 0.00 | 0.36 | 0.36 | 99 | 1011.8 |
| 20260509215725 | 45 | 291 | 2.0 | 2.0 | 0.05 | 0.36 | 0.36 | 99 | 1011.8 |
| 20260509215222 | 45 | 298 | 3.0 | 3.0 | 0.05 | 0.36 | 0.36 | 99 | 1011.5 |
| 20260509214719 | 45 | 300 | 3.0 | 5.0 | 0.07 | 0.35 | 0.35 | 99 | 1011.8 |
| 20260509214216 | 45 | 298 | 3.0 | 3.0 | 0.07 | 0.35 | 0.35 | 99 | 1012.0 |
| 20260509213713 | 45 | 308 | 3.0 | 3.0 | 0.07 | 0.34 | 0.34 | 99 | 1012.2 |
| 20260509213208 | 45 | 297 | 3.0 | 3.0 | 0.12 | 0.34 | 0.34 | 99 | 1012.2 |
| 20260509212707 | 45 | 279 | 2.0 | 2.0 | 0.05 | 0.33 | 0.33 | 99 | 1012.1 |
| 20260509212203 | 45 | 298 | 2.0 | 2.0 | 0.00 | 0.32 | 0.32 | 99 | 1012.4 |
| 20260509211659 | 45 | 306 | 0.0 | 1.0 | 0.00 | 0.32 | 0.32 | 99 | 1012.0 |
| 20260509211156 | 45 | 302 | 1.0 | 1.0 | 0.07 | 0.32 | 0.32 | 99 | 1012.2 |
| 20260509210652 | 45 | 285 | 3.0 | 5.0 | 0.07 | 0.32 | 0.32 | 99 | 1012.2 |
| 20260509210144 | 45 | 307 | 3.0 | 3.0 | 0.00 | 0.31 | 0.31 | 99 | 1012.2 |
| 20260509205639 | 46 | 293 | 2.0 | 2.0 | 0.00 | 0.31 | 0.31 | 99 | 1012.2 |
| 20260509205138 | 45 | 289 | 2.0 | 2.0 | 0.00 | 0.31 | 0.31 | 99 | 1012.0 |
| 20260509204635 | 45 | 300 | 3.0 | 3.0 | 0.00 | 0.31 | 0.31 | 99 | 1012.0 |
| 20260509204131 | 46 | 283 | 3.0 | 3.0 | 0.00 | 0.31 | 0.31 | 99 | 1011.8 |
| 20260509203627 | 45 | 273 | 4.0 | 5.0 | 0.00 | 0.31 | 0.31 | 99 | 1011.9 |
| 20260509203126 | 45 | 303 | 2.0 | 2.0 | 0.00 | 0.31 | 0.31 | 99 | 1012.0 |
| 20260509202625 | 45 | 306 | 2.0 | 2.0 | 0.00 | 0.31 | 0.31 | 99 | 1011.9 |
| 20260509202121 | 45 | 276 | 3.0 | 5.0 | 0.00 | 0.31 | 0.31 | 99 | 1011.4 |
| 20260509201616 | 45 | 302 | 2.0 | 2.0 | 0.00 | 0.31 | 0.31 | 99 | 1011.5 |
| 20260509201114 | 45 | 298 | 4.0 | 5.0 | 0.05 | 0.31 | 0.31 | 99 | 1012.3 |
| 20260509200615 | 45 | 287 | 2.0 | 2.0 | 0.05 | 0.31 | 0.31 | 99 | 1012.5 |
| 20260509200105 | 45 | 307 | 2.0 | 2.0 | 0.00 | 0.30 | 0.30 | 99 | 1012.9 |
| 20260509195601 | 45 | 303 | 1.0 | 2.0 | 0.00 | 0.30 | 0.30 | 99 | 1013.0 |
| 20260509195056 | 45 | 307 | 1.0 | 1.0 | 0.07 | 0.30 | 0.30 | 99 | 1012.9 |
| 20260509194555 | 45 | 300 | 1.0 | 2.0 | 0.12 | 0.30 | 0.30 | 99 | 1013.0 |
| 20260509194054 | 45 | 309 | 1.0 | 1.0 | 0.05 | 0.29 | 0.29 | 99 | 1012.8 |
| 20260509193548 | 45 | 314 | 0.0 | 1.0 | 0.05 | 0.29 | 0.29 | 99 | 1013.0 |
| 20260509193045 | 45 | 303 | 2.0 | 2.0 | 0.07 | 0.28 | 0.28 | 99 | 1012.9 |
| 20260509192542 | 45 | 309 | 1.0 | 1.0 | 0.07 | 0.28 | 0.28 | 99 | 1012.8 |
| 20260509192037 | 45 | 314 | 1.0 | 2.0 | 0.05 | 0.27 | 0.27 | 99 | 1012.8 |
| 20260509191531 | 45 | 314 | 1.0 | 1.0 | 0.12 | 0.27 | 0.27 | 99 | 1013.0 |
| 20260509191027 | 45 | 312 | 1.0 | 1.0 | 0.12 | 0.26 | 0.26 | 99 | 1013.0 |
| 20260509190525 | 45 | 291 | 3.0 | 3.0 | 0.12 | 0.25 | 0.25 | 99 | 1013.0 |
| 20260509190023 | 45 | 309 | 0.0 | 1.0 | 0.14 | 0.24 | 0.24 | 99 | 1013.1 |
| 20260509185520 | 45 | 310 | 1.0 | 1.0 | 0.19 | 0.24 | 0.24 | 99 | 1013.1 |
| 20260509185016 | 45 | 312 | 1.0 | 1.0 | 0.12 | 0.22 | 0.22 | 99 | 1013.2 |
| 20260509184514 | 45 | 311 | 2.0 | 2.0 | 0.12 | 0.21 | 0.21 | 99 | 1013.4 |
| 20260509184010 | 45 | 300 | 0.0 | 1.0 | 0.12 | 0.20 | 0.20 | 99 | 1013.4 |
| 20260509183505 | 45 | 306 | 1.0 | 1.0 | 0.12 | 0.19 | 0.19 | 99 | 1013.4 |
| 20260509183002 | 45 | 311 | 1.0 | 1.0 | 0.05 | 0.18 | 0.18 | 99 | 1013.3 |
| 20260509182458 | 45 | 312 | 0.0 | 1.0 | 0.07 | 0.17 | 0.17 | 99 | 1013.3 |
| 20260509181955 | 46 | 311 | 1.0 | 1.0 | 0.12 | 0.17 | 0.17 | 98 | 1013.6 |
| 20260509181454 | 46 | 308 | 1.0 | 1.0 | 0.17 | 0.16 | 0.16 | 98 | 1013.5 |
| 20260509180951 | 46 | 315 | 1.0 | 1.0 | 0.19 | 0.15 | 0.15 | 98 | 1013.5 |
| 20260509180446 | 46 | 326 | 0.0 | 1.0 | 0.19 | 0.13 | 0.13 | 97 | 1013.5 |
| 20260509175943 | 46 | 311 | 1.0 | 1.0 | 0.19 | 0.12 | 0.12 | 97 | 1013.4 |
| 20260509175439 | 46 | 311 | 0.0 | 1.0 | 0.12 | 0.10 | 0.10 | 96 | 1013.3 |
| 20260509174936 | 46 | 304 | 1.0 | 1.0 | 0.12 | 0.09 | 0.09 | 96 | 1013.2 |
| 20260509174432 | 46 | 311 | 1.0 | 1.0 | 0.07 | 0.08 | 0.08 | 95 | 1013.3 |
| 20260509173927 | 47 | 325 | 0.0 | 1.0 | 0.05 | 0.07 | 0.07 | 95 | 1013.3 |
| 20260509173421 | 47 | 326 | 0.0 | 1.0 | 0.07 | 0.06 | 0.06 | 94 | 1013.5 |
| 20260509172918 | 47 | 327 | 0.0 | 0.0 | 0.12 | 0.06 | 0.06 | 94 | 1013.4 |
| 20260509172415 | 47 | 328 | 0.0 | 0.0 | 0.12 | 0.05 | 0.05 | 93 | 1013.3 |
| 20260509171911 | 47 | 329 | 0.0 | 0.0 | 0.12 | 0.04 | 0.04 | 91 | 1013.1 |
| 20260509171407 | 48 | 329 | 1.0 | 1.0 | 0.12 | 0.03 | 0.03 | 90 | 1013.4 |
| 20260509170903 | 47 | 331 | 0.0 | 0.0 | 0.07 | 0.02 | 0.02 | 88 | 1013.3 |
| 20260509170359 | 48 | 335 | 1.0 | 2.0 | 0.05 | 0.01 | 0.01 | 85 | 1013.5 |
| 20260509165855 | 49 | 330 | 1.0 | 1.0 | 0.05 | 0.01 | 0.01 | 83 | 1013.3 |
| 20260509165349 | 50 | 328 | 0.0 | 1.0 | 0.00 | 0.00 | 0.00 | 80 | 1013.3 |
| 20260509164845 | 50 | 328 | 1.0 | 1.0 | 0.00 | 0.00 | 0.00 | 79 | 1013.4 |
| 20260509164341 | 49 | 330 | 1.0 | 1.0 | 0.00 | 0.00 | 0.00 | 76 | 1013.3 |
| 20260509163838 | 50 | 355 | 1.0 | 1.0 | 0.00 | 0.00 | 0.00 | 75 | 1013.4 |
| 20260509163334 | 50 | 355 | 0.0 | 1.0 | 0.00 | 0.00 | 0.00 | 74 | 1013.5 |
| 20260509162833 | 50 | 356 | 1.0 | 5.0 | 0.00 | 0.00 | 0.00 | 73 | 1013.3 |
| 20260509162326 | 51 | 356 | 3.0 | 5.0 | 0.00 | 0.00 | 0.00 | 69 | 1013.4 |
| 20260509161823 | 51 | 334 | 1.0 | 2.0 | 0.00 | 0.00 | 0.00 | 66 | 1013.5 |
| 20260509161320 | 51 | 332 | 1.0 | 1.0 | 0.00 | 0.00 | 0.00 | 66 | 1013.5 |
| 20260509160815 | 51 | 338 | 1.0 | 1.0 | 0.00 | 0.00 | 0.00 | 67 | 1013.5 |
| 20260509160311 | 51 | 340 | 3.0 | 3.0 | 0.00 | 0.00 | 0.00 | 65 | 1013.4 |
| 20260509155806 | 51 | 331 | 0.0 | 0.0 | 0.00 | 0.00 | 0.00 | 66 | 1013.4 |
| 20260509155306 | 51 | 339 | 3.0 | 3.0 | 0.00 | 0.00 | 0.00 | 64 | 1013.5 |
| 20260509154759 | 52 | 333 | 1.0 | 1.0 | 0.00 | 0.00 | 0.00 | 62 | 1013.6 |
| 20260509154256 | 52 | 332 | 1.0 | 2.0 | 0.00 | 0.00 | 0.00 | 63 | 1013.5 |
| 20260509153753 | 52 | 341 | 1.0 | 2.0 | 0.00 | 0.00 | 0.00 | 61 | 1013.6 |
| 20260509153249 | 52 | 337 | 2.0 | 2.0 | 0.00 | 0.00 | 0.00 | 58 | 1013.4 |
| 20260509152746 | 53 | 337 | 1.0 | 3.0 | 0.00 | 0.00 | 0.00 | 58 | 1013.3 |
| 20260509152242 | 53 | 335 | 0.0 | 1.0 | 0.00 | 0.00 | 0.00 | 57 | 1013.5 |
| 20260509151739 | 53 | 335 | 2.0 | 2.0 | 0.00 | 0.00 | 0.00 | 58 | 1013.4 |
| 20260509151236 | 53 | 335 | 1.0 | 1.0 | 0.00 | 0.00 | 0.00 | 57 | 1013.1 |
| 20260509150734 | 54 | 335 | 0.0 | 1.0 | 0.00 | 0.00 | 0.00 | 56 | 1013.0 |
| 20260509150232 | 54 | 336 | 1.0 | 2.0 | 0.00 | 0.00 | 0.00 | 56 | 1013.0 |
| 20260509145729 | 55 | 336 | 2.0 | 2.0 | 0.00 | 0.00 | 0.00 | 55 | 1012.7 |
| 20260509145223 | 54 | 332 | 2.0 | 2.0 | 0.00 | 0.00 | 0.00 | 52 | 1012.8 |
| 20260509144720 | 55 | 332 | 1.0 | 2.0 | 0.00 | 0.00 | 0.00 | 53 | 1012.8 |
| 20260509144217 | 55 | 332 | 2.0 | 2.0 | 0.00 | 0.00 | 0.00 | 52 | 1012.8 |
| 20260509143714 | 56 | 331 | 1.0 | 1.0 | 0.00 | 0.00 | 0.00 | 52 | 1012.8 |
| 20260509143211 | 56 | 322 | 2.0 | 2.0 | 0.00 | 0.00 | 0.00 | 51 | 1012.5 |
| 20260509142706 | 55 | 337 | 2.0 | 2.0 | 0.00 | 0.00 | 0.00 | 51 | 1012.7 |
| 20260509142204 | 55 | 339 | 2.0 | 2.0 | 0.00 | 0.00 | 0.00 | 51 | 1012.6 |
| 20260509141659 | 56 | 339 | 2.0 | 2.0 | 0.00 | 0.00 | 0.00 | 49 | 1012.6 |
| 20260509141156 | 55 | 339 | 2.0 | 2.0 | 0.00 | 0.00 | 0.00 | 51 | 1012.7 |
| 20260509140653 | 57 | 321 | 1.0 | 1.0 | 0.00 | 0.00 | 0.00 | 50 | 1012.6 |
| 20260509140151 | 57 | 315 | 0.0 | 1.0 | 0.00 | 0.00 | 0.00 | 48 | 1012.8 |
| 20260509135648 | 57 | 318 | 0.0 | 1.0 | 0.00 | 0.00 | 0.00 | 48 | 1012.7 |
| 20260509135146 | 57 | 322 | 1.0 | 1.0 | 0.00 | 0.00 | 0.00 | 47 | 1012.7 |
| 20260509134642 | 57 | 326 | 1.0 | 2.0 | 0.00 | 0.00 | 0.00 | 46 | 1012.6 |
| 20260509134140 | 57 | 319 | 1.0 | 1.0 | 0.00 | 0.00 | 0.00 | 44 | 1012.7 |
| 20260509133637 | 58 | 308 | 2.0 | 2.0 | 0.00 | 0.00 | 0.00 | 47 | 1012.8 |
| 20260509133134 | 58 | 307 | 2.0 | 2.0 | 0.00 | 0.00 | 0.00 | 49 | 1012.9 |
| 20260509132632 | 58 | 313 | 1.0 | 1.0 | 0.00 | 0.00 | 0.00 | 45 | 1012.7 |
| 20260509132130 | 58 | 307 | 2.0 | 3.0 | 0.00 | 0.00 | 0.00 | 48 | 1012.9 |
| 20260509131626 | 57 | 310 | 2.0 | 2.0 | 0.00 | 0.00 | 0.00 | 45 | 1012.9 |
| 20260509131123 | 57 | 321 | 0.0 | 1.0 | 0.00 | 0.00 | 0.00 | 47 | 1012.8 |
| 20260509130619 | 58 | 305 | 0.0 | 0.0 | 0.00 | 0.00 | 0.00 | 49 | 1012.9 |
| 20260509130115 | 58 | 305 | 0.0 | 0.0 | 0.00 | 0.00 | 0.00 | 52 | 1012.7 |
| 20260509125612 | 59 | 309 | 1.0 | 2.0 | 0.00 | 0.00 | 0.00 | 51 | 1012.8 |
| 20260509125109 | 58 | 306 | 0.0 | 1.0 | 0.00 | 0.00 | 0.00 | 52 | 1013.0 |
| 20260509124605 | 58 | 308 | 1.0 | 1.0 | 0.00 | 0.00 | 0.00 | 51 | 1012.9 |
| 20260509124103 | 58 | 311 | 0.0 | 1.0 | 0.00 | 0.00 | 0.00 | 51 | 1013.0 |
| 20260509123600 | 57 | 311 | 1.0 | 1.0 | 0.00 | 0.00 | 0.00 | 53 | 1012.9 |
| 20260509123057 | 57 | 311 | 0.0 | 1.0 | 0.00 | 0.00 | 0.00 | 52 | 1013.2 |
| 20260509122553 | 58 | 308 | 1.0 | 1.0 | 0.00 | 0.00 | 0.00 | 51 | 1013.0 |
| 20260509122050 | 58 | 308 | 1.0 | 2.0 | 0.00 | 0.00 | 0.00 | 53 | 1013.2 |
| 20260509121546 | 58 | 309 | 2.0 | 2.0 | 0.00 | 0.00 | 0.00 | 54 | 1012.9 |
| 20260509121048 | 58 | 309 | 0.0 | 0.0 | 0.00 | 0.00 | 0.00 | 58 | 1013.1 |
| 20260509120542 | 56 | 309 | 0.0 | 0.0 | 0.00 | 0.00 | 0.00 | 59 | 1012.9 |
| 20260509120041 | 54 | 309 | 0.0 | 0.0 | 0.00 | 0.00 | 0.00 | 58 | 1013.1 |
| 20260509115537 | 56 | 309 | 0.0 | 0.0 | 0.00 | 0.00 | 0.00 | 58 | 1012.9 |
| 20260509115035 | 54 | 309 | 0.0 | 1.0 | 0.00 | 0.00 | 0.00 | 62 | 1012.7 |
| 20260509114533 | 54 | 309 | 1.0 | 1.0 | 0.00 | 0.00 | 0.00 | 62 | 1012.8 |
| 20260509114031 | 55 | 309 | 1.0 | 1.0 | 0.00 | 0.00 | 0.00 | 60 | 1013.2 |
| 20260509113529 | 56 | 309 | 0.0 | 0.0 | 0.00 | 0.00 | 0.00 | 60 | 1012.9 |
| 20260509113027 | 55 | 309 | 0.0 | 0.0 | 0.00 | 0.00 | 0.00 | 58 | 1012.9 |
| 20260509112523 | 55 | 309 | 0.0 | 0.0 | 0.00 | 0.00 | 0.00 | 57 | 1013.0 |
| 20260509112020 | 52 | 309 | 0.0 | 0.0 | 0.00 | 0.00 | 0.00 | 62 | 1013.1 |
| 20260509111517 | 55 | 309 | 0.0 | 0.0 | 0.00 | 0.00 | 0.00 | 59 | 1013.1 |
| 20260509111014 | 54 | 309 | 0.0 | 0.0 | 0.00 | 0.00 | 0.00 | 62 | 1013.1 |
| 20260509110511 | 53 | 309 | 0.0 | 0.0 | 0.00 | 0.00 | 0.00 | 64 | 1013.1 |
| 20260509110008 | 53 | 309 | 0.0 | 0.0 | 0.00 | 0.00 | 0.00 | 64 | 1012.8 |
| 20260509105506 | 53 | 309 | 0.0 | 0.0 | 0.00 | 0.00 | 0.00 | 64 | 1013.1 |
| 20260509105003 | 52 | 309 | 0.0 | 0.0 | 0.00 | 0.00 | 0.00 | 66 | 1012.7 |
| 20260509104500 | 50 | 309 | 0.0 | 0.0 | 0.00 | 0.00 | 0.00 | 70 | 1012.8 |
| 20260509103957 | 48 | 310 | 0.0 | 0.0 | 0.00 | 0.00 | 0.00 | 78 | 1012.7 |
| 20260509103455 | 47 | 312 | 0.0 | 0.0 | 0.00 | 0.00 | 0.00 | 80 | 1012.7 |
| 20260509102953 | 45 | 310 | 0.0 | 0.0 | 0.00 | 0.00 | 0.00 | 83 | 1012.5 |
| 20260509102450 | 44 | 305 | 1.0 | 1.0 | 0.00 | 0.00 | 0.00 | 83 | 1012.6 |
| 20260509101946 | 44 | 308 | 0.0 | 0.0 | 0.00 | 0.00 | 0.00 | 84 | 1012.4 |
| 20260509101443 | 43 | 306 | 0.0 | 1.0 | 0.00 | 0.00 | 0.00 | 83 | 1012.2 |
| 20260509100940 | 44 | 307 | 0.0 | 1.0 | 0.00 | 0.00 | 0.00 | 82 | 1012.6 |
| 20260509100437 | 43 | 311 | 0.0 | 0.0 | 0.00 | 0.00 | 0.00 | 88 | 1012.2 |
| 20260509095933 | 41 | 311 | 0.0 | 0.0 | 0.00 | 0.00 | 0.00 | 92 | 1012.1 |
| 20260509095431 | 39 | 312 | 0.0 | 0.0 | 0.00 | 0.00 | 0.00 | 93 | 1012.1 |
| 20260509094928 | 38 | 312 | 0.0 | 0.0 | 0.00 | 0.00 | 0.00 | 94 | 1012.1 |
| 20260509094424 | 38 | 312 | 0.0 | 0.0 | 0.00 | 0.00 | 0.00 | 94 | 1011.7 |
| 20260509093922 | 37 | 312 | 0.0 | 0.0 | 0.00 | 0.00 | 0.00 | 93 | 1011.9 |
| 20260509093419 | 37 | 315 | 0.0 | 0.0 | 0.00 | 0.00 | 0.00 | 93 | 1011.6 |